#timestamp,LO_Frequency,Hit,StdDev 
1700787615.6,286046997.3,N
1700787635.4,286046996.8,N
1700787655.3,286046997.3,N
1700787675.1,286046996.6,N
1700787676.0,286046996.6,N
1700787695.8,286046999.5,N
1700787715.7,286046999.3,N
1700787735.5,286046996.5,N
1700787755.4,286046997.8,N
1700787775.2,286046996.0,N
1700787795.0,286046994.1,Y
1700787795.9,286046994.1,P
1700787815.8,286046995.8,N
1700787835.6,286046993.6,P
1700787855.5,286046994.7,N
1700787875.3,286046993.6,Y
1700787895.1,286046999.3,P
1700787915.9,286047001.2,N
1700787935.7,286046998.5,N
1700787955.6,286047000.1,N
1700787975.4,286047000.3,N
1700787995.2,286047001.0,N
1700788015.1,286046998.2,N
1700788016.0,286046998.2,N
1700788035.8,286046999.1,N
1700788055.6,286046997.1,N
1700788075.5,286046999.5,N
1700788095.3,286046996.6,N
1700788115.2,286046996.6,N
1700788135.9,286046996.7,N
1700788155.7,286046996.6,N
1700788175.6,286046996.9,N
1700788195.4,286046997.8,N
1700788215.2,286046997.9,N
1700788235.1,286046995.3,N
1700788236.0,286046995.3,N
1700788255.8,286046996.3,N
1700788275.7,286046996.0,N
1700788295.5,286046993.8,Y
1700788315.3,286046997.3,P
1700788335.2,286046996.5,P
1700788355.0,286046997.1,P
1700788355.9,286046997.1,Y
1700788375.8,286046999.0,P
1700788395.6,286046996.5,P
1700788415.4,286046999.1,N
1700788435.3,286046996.8,N
1700788455.1,286046999.4,N
1700788475.8,286046996.9,N
1700788495.7,286046997.4,N
1700788515.5,286046994.9,Y
1700788535.4,286046999.1,P
1700788555.2,286046999.2,N
1700788575.0,286046997.3,P
1700788575.9,286046997.3,Y
1700788595.8,286046998.7,P
1700788615.6,286046998.8,P
1700788635.5,286046999.9,N
1700788655.3,286047004.3,Y
1700788675.1,286047004.0,P
1700788695.9,286047002.1,N
1700788715.7,286047002.5,N
1700788735.5,286046999.8,N
1700788755.4,286047000.0,N
1700788775.2,286047001.0,N
1700788795.1,286047000.9,N
1700788796.0,286047000.9,N
1700788815.8,286047000.8,N
1700788835.6,286047000.8,N
1700788855.5,286047000.7,N
1700788875.3,286047001.1,N
1700788895.1,286046998.1,N
1700788915.9,286047000.8,N
1700788935.7,286047000.7,N
1700788955.6,286047000.8,N
1700788975.4,286047000.4,N
1700788995.2,286047000.4,N
1700789015.1,286047000.2,N
1700789016.0,286047000.2,N
1700789035.8,286047000.4,N
1700789055.6,286046998.5,N
1700789075.5,286047000.4,N
1700789095.3,286047002.6,N
1700789115.2,286047004.7,Y
1700789135.9,286047002.0,P
1700789155.7,286047000.5,N
1700789175.6,286047002.8,P
1700789195.4,286047000.8,N
1700789215.2,286047000.9,N
1700789235.1,286047002.8,Y
1700789236.0,286047002.8,P
1700789255.8,286046998.2,N
1700789275.7,286046996.6,N
1700789295.5,286046995.1,N
1700789315.3,286046997.8,N
1700789335.2,286046997.8,N
1700789355.0,286046997.6,N
1700789355.9,286046997.6,N
1700789375.8,286046997.8,N
1700789395.6,286046997.4,N
1700789415.4,286046997.4,N
1700789435.3,286046997.6,N
1700789455.1,286046995.3,N
1700789475.9,286046995.9,N
1700789495.7,286046994.9,N
1700789515.5,286046996.1,N
1700789535.4,286046996.4,N
1700789555.2,286046993.4,Y
1700789575.0,286046998.4,P
1700789575.9,286046998.4,P
1700789595.8,286046998.9,N
1700789615.6,286046999.3,N
1700789635.5,286047000.9,N
1700789655.3,286047001.2,N
1700789675.1,286046999.3,N
1700789695.9,286046999.6,N
1700789715.7,286046999.2,N
1700789735.5,286046999.1,N
1700789755.4,286046999.0,N
1700789775.2,286046998.8,N
1700789795.1,286046999.3,N
1700789796.0,286046999.3,N
1700789815.8,286046999.2,N
1700789835.6,286046996.8,Y
1700789855.5,286046997.7,P
1700789875.3,286046997.2,P
1700789895.1,286046996.5,P
1700789915.9,286046997.5,N
1700789935.7,286046997.2,Y
1700789955.6,286047000.3,P
1700789975.4,286047000.4,N
1700789995.2,286047000.2,N
1700790015.1,286047000.3,N
1700790016.0,286047000.3,N
1700790035.8,286047001.0,N
1700790055.6,286047000.0,N
1700790075.5,286047001.1,N
1700790095.3,286046998.7,N
1700790115.2,286046998.4,N
1700790135.9,286046998.2,N
1700790155.7,286047000.3,N
1700790175.6,286046998.2,N
1700790195.4,286046998.5,N
1700790215.2,286046999.0,N
1700790235.1,286046999.5,N
1700790236.0,286046999.5,N
1700790255.8,286046999.3,N
1700790275.7,286047001.1,N
1700790295.5,286046998.2,N
1700790315.3,286046998.9,N
1700790335.2,286046999.3,N
1700790355.0,286046998.4,N
1700790355.9,286046998.4,N
1700790375.8,286046998.2,N
1700790395.6,286046998.6,N
1700790415.4,286047000.4,N
1700790435.3,286047003.7,Y
1700790455.1,286047003.5,P
1700790475.9,286047001.8,N
1700790495.7,286047002.0,N
1700790515.5,286047011.9,Y
1700790535.4,286046999.1,P
1700790555.2,286046998.5,N
1700790575.0,286047000.9,N
1700790576.0,286047000.9,N
1700790595.8,286047001.2,N
1700790615.6,286047000.5,N
1700790635.5,286047001.1,N
1700790655.3,286046998.1,N
1700790675.1,286046998.2,N
1700790695.9,286047000.7,N
1700790715.7,286046998.2,N
1700790735.5,286046999.6,N
1700790755.4,286046999.0,N
1700790775.2,286047001.1,N
1700790795.1,286047000.9,N
1700790796.0,286047000.9,N
1700790815.8,286046998.8,N
1700790835.6,286046999.0,N
1700790855.5,286046998.7,N
1700790875.3,286046998.3,N
1700790895.1,286046998.5,N
1700790915.9,286046998.2,N
1700790935.7,286046998.5,N
1700790955.6,286047000.2,N
1700790975.4,286047001.1,N
1700790995.2,286046998.6,N
1700791015.1,286047000.5,N
1700791016.0,286047000.5,N
1700791035.8,286047000.5,N
1700791055.7,286047000.8,N
1700791075.5,286047001.2,N
1700791095.3,286046999.8,N
1700791115.2,286047002.3,N
1700791135.0,286047002.0,N
1700791135.9,286047002.0,N
1700791155.8,286047001.3,N
1700791175.6,286047003.8,N
1700791195.4,286047004.3,N
